Year,Month,Day,Hour,Minute,Value (Times are PST for temperature in C)
2016,09,26,00,00,15.00
2016,09,26,00,01,15.00
2016,09,26,00,02,15.00
2016,09,26,00,03,15.00
2016,09,26,00,04,15.00
2016,09,26,00,05,15.00
2016,09,26,00,06,15.00
2016,09,26,00,07,14.90
2016,09,26,00,08,14.90
2016,09,26,00,09,14.90
2016,09,26,00,10,15.00
2016,09,26,00,11,15.00
2016,09,26,00,12,14.90
2016,09,26,00,13,14.90
2016,09,26,00,14,14.90
2016,09,26,00,15,14.90
2016,09,26,00,16,14.90
2016,09,26,00,17,14.90
2016,09,26,00,18,14.90
2016,09,26,00,19,14.80
2016,09,26,00,20,14.80
2016,09,26,00,21,14.80
2016,09,26,00,22,14.80
2016,09,26,00,23,14.80
2016,09,26,00,24,14.80
2016,09,26,00,25,14.80
2016,09,26,00,26,14.80
2016,09,26,00,27,14.80
2016,09,26,00,28,14.80
2016,09,26,00,29,14.80
2016,09,26,00,30,14.80
2016,09,26,00,31,14.80
2016,09,26,00,32,14.80
2016,09,26,00,33,14.80
2016,09,26,00,34,14.80
2016,09,26,00,35,14.80
2016,09,26,00,36,14.70
2016,09,26,00,37,14.70
2016,09,26,00,38,14.70
2016,09,26,00,39,14.70
2016,09,26,00,40,14.70
2016,09,26,00,41,14.70
2016,09,26,00,42,14.70
2016,09,26,00,43,14.70
2016,09,26,00,44,14.70
2016,09,26,00,45,14.70
2016,09,26,00,46,14.70
2016,09,26,00,47,14.70
2016,09,26,00,48,14.70
2016,09,26,00,49,14.70
2016,09,26,00,50,14.70
2016,09,26,00,51,14.70
2016,09,26,00,52,14.70
2016,09,26,00,53,14.70
2016,09,26,00,54,14.70
2016,09,26,00,55,14.70
2016,09,26,00,56,14.70
2016,09,26,00,57,14.70
2016,09,26,00,58,14.70
2016,09,26,00,59,14.60
2016,09,26,01,00,14.60
2016,09,26,01,01,14.60
2016,09,26,01,02,14.60
2016,09,26,01,03,14.60
2016,09,26,01,04,14.60
2016,09,26,01,05,14.60
2016,09,26,01,06,14.60
2016,09,26,01,07,14.60
2016,09,26,01,08,14.50
2016,09,26,01,09,14.50
2016,09,26,01,10,14.50
2016,09,26,01,11,14.50
2016,09,26,01,12,14.50
2016,09,26,01,13,14.50
2016,09,26,01,14,14.50
2016,09,26,01,15,14.50
2016,09,26,01,16,14.50
2016,09,26,01,17,14.50
2016,09,26,01,18,14.50
2016,09,26,01,19,14.50
2016,09,26,01,20,14.50
2016,09,26,01,21,14.40
2016,09,26,01,22,14.40
2016,09,26,01,23,14.40
2016,09,26,01,24,14.40
2016,09,26,01,25,14.40
2016,09,26,01,26,14.40
2016,09,26,01,27,14.40
2016,09,26,01,28,14.40
2016,09,26,01,29,14.40
2016,09,26,01,30,14.40
2016,09,26,01,31,14.40
2016,09,26,01,32,14.40
2016,09,26,01,33,14.40
2016,09,26,01,34,14.40
2016,09,26,01,35,14.40
2016,09,26,01,36,14.40
2016,09,26,01,37,14.40
2016,09,26,01,38,14.40
2016,09,26,01,39,14.30
2016,09,26,01,40,14.30
2016,09,26,01,41,14.30
2016,09,26,01,42,14.30
2016,09,26,01,43,14.30
2016,09,26,01,44,14.30
2016,09,26,01,45,14.30
2016,09,26,01,46,14.30
2016,09,26,01,47,14.30
2016,09,26,01,48,14.30
2016,09,26,01,49,14.30
2016,09,26,01,50,14.30
2016,09,26,01,51,14.30
2016,09,26,01,52,14.30
2016,09,26,01,53,14.30
2016,09,26,01,54,14.30
2016,09,26,01,55,14.30
2016,09,26,01,56,14.30
2016,09,26,01,57,14.30
2016,09,26,01,58,14.30
2016,09,26,01,59,14.30
2016,09,26,02,00,14.30
2016,09,26,02,01,14.20
2016,09,26,02,02,14.20
2016,09,26,02,03,14.20
2016,09,26,02,04,14.20
2016,09,26,02,05,14.20
2016,09,26,02,06,14.20
2016,09,26,02,07,14.20
2016,09,26,02,08,14.20
2016,09,26,02,09,14.20
2016,09,26,02,10,14.20
2016,09,26,02,11,14.20
2016,09,26,02,12,14.20
2016,09,26,02,13,14.20
2016,09,26,02,14,14.10
2016,09,26,02,15,14.10
2016,09,26,02,16,14.10
2016,09,26,02,17,14.10
2016,09,26,02,18,14.10
2016,09,26,02,19,14.10
2016,09,26,02,20,14.10
2016,09,26,02,21,14.10
2016,09,26,02,22,14.10
2016,09,26,02,23,14.20
2016,09,26,02,24,14.20
2016,09,26,02,25,14.20
2016,09,26,02,26,14.20
2016,09,26,02,27,14.20
2016,09,26,02,28,14.20
2016,09,26,02,29,14.20
2016,09,26,02,30,14.20
2016,09,26,02,31,14.20
2016,09,26,02,32,14.20
2016,09,26,02,33,14.20
2016,09,26,02,34,14.20
2016,09,26,02,35,14.20
2016,09,26,02,36,14.20
2016,09,26,02,37,14.20
2016,09,26,02,38,14.20
2016,09,26,02,39,14.20
2016,09,26,02,40,14.20
2016,09,26,02,41,14.20
2016,09,26,02,42,14.20
2016,09,26,02,43,14.20
2016,09,26,02,44,14.20
2016,09,26,02,45,14.20
2016,09,26,02,46,14.20
2016,09,26,02,47,14.20
2016,09,26,02,48,14.20
2016,09,26,02,49,14.20
2016,09,26,02,50,14.20
2016,09,26,02,51,14.20
2016,09,26,02,52,14.20
2016,09,26,02,53,14.20
2016,09,26,02,54,14.10
2016,09,26,02,55,14.10
2016,09,26,02,56,14.10
2016,09,26,02,57,14.10
2016,09,26,02,58,14.10
2016,09,26,02,59,14.10
2016,09,26,03,00,14.10
2016,09,26,03,01,14.20
2016,09,26,03,02,14.20
2016,09,26,03,03,14.20
2016,09,26,03,04,14.20
2016,09,26,03,05,14.10
2016,09,26,03,06,14.10
2016,09,26,03,07,14.10
2016,09,26,03,08,14.10
2016,09,26,03,09,14.10
2016,09,26,03,10,14.10
2016,09,26,03,11,14.10
2016,09,26,03,12,14.00
2016,09,26,03,13,14.00
2016,09,26,03,14,14.10
2016,09,26,03,15,14.10
2016,09,26,03,16,14.10
2016,09,26,03,17,14.10
2016,09,26,03,18,14.10
2016,09,26,03,19,14.10
2016,09,26,03,20,14.10
2016,09,26,03,21,14.10
2016,09,26,03,22,14.10
2016,09,26,03,23,14.00
2016,09,26,03,24,14.00
2016,09,26,03,25,14.00
2016,09,26,03,26,14.00
2016,09,26,03,27,14.00
2016,09,26,03,28,14.00
2016,09,26,03,29,14.00
2016,09,26,03,30,14.00
2016,09,26,03,31,14.00
2016,09,26,03,32,14.00
2016,09,26,03,33,14.00
2016,09,26,03,34,14.00
2016,09,26,03,35,14.00
2016,09,26,03,36,14.00
2016,09,26,03,37,14.00
2016,09,26,03,38,14.00
2016,09,26,03,39,14.00
2016,09,26,03,40,14.00
2016,09,26,03,41,14.00
2016,09,26,03,42,14.00
2016,09,26,03,43,14.00
2016,09,26,03,44,14.00
2016,09,26,03,45,14.00
2016,09,26,03,46,14.00
2016,09,26,03,47,14.10
2016,09,26,03,48,14.10
2016,09,26,03,49,14.10
2016,09,26,03,50,14.00
2016,09,26,03,51,14.00
2016,09,26,03,52,14.00
2016,09,26,03,53,13.90
2016,09,26,03,54,13.90
2016,09,26,03,55,13.90
2016,09,26,03,56,13.80
2016,09,26,03,57,13.80
2016,09,26,03,58,13.80
2016,09,26,03,59,13.80
2016,09,26,04,00,13.70
2016,09,26,04,01,13.70
2016,09,26,04,02,13.70
2016,09,26,04,03,13.70
2016,09,26,04,04,13.70
2016,09,26,04,05,13.70
2016,09,26,04,06,13.70
2016,09,26,04,07,13.70
2016,09,26,04,08,13.70
2016,09,26,04,09,13.70
2016,09,26,04,10,13.70
2016,09,26,04,11,13.70
2016,09,26,04,12,13.70
2016,09,26,04,13,13.70
2016,09,26,04,14,13.70
2016,09,26,04,15,13.70
2016,09,26,04,16,13.70
2016,09,26,04,17,13.80
2016,09,26,04,18,13.80
2016,09,26,04,19,13.70
2016,09,26,04,20,13.70
2016,09,26,04,21,13.70
2016,09,26,04,22,13.70
2016,09,26,04,23,13.70
2016,09,26,04,24,13.70
2016,09,26,04,25,13.70
2016,09,26,04,26,13.70
2016,09,26,04,27,13.70
2016,09,26,04,28,13.70
2016,09,26,04,29,13.70
2016,09,26,04,30,13.70
2016,09,26,04,31,13.70
2016,09,26,04,32,13.70
2016,09,26,04,33,13.70
2016,09,26,04,34,13.70
2016,09,26,04,35,13.70
2016,09,26,04,36,13.70
2016,09,26,04,37,13.70
2016,09,26,04,38,13.70
2016,09,26,04,39,13.70
2016,09,26,04,40,13.70
2016,09,26,04,41,13.70
2016,09,26,04,42,13.70
2016,09,26,04,43,13.70
2016,09,26,04,44,13.70
2016,09,26,04,45,13.70
2016,09,26,04,46,13.70
2016,09,26,04,47,13.70
2016,09,26,04,48,13.60
2016,09,26,04,49,13.60
2016,09,26,04,50,13.60
2016,09,26,04,51,13.60
2016,09,26,04,52,13.60
2016,09,26,04,53,13.60
2016,09,26,04,54,13.60
2016,09,26,04,55,13.60
2016,09,26,04,56,13.60
2016,09,26,04,57,13.60
2016,09,26,04,58,13.60
2016,09,26,04,59,13.60
2016,09,26,05,00,13.70
2016,09,26,05,01,13.70
2016,09,26,05,02,13.70
2016,09,26,05,03,13.70
2016,09,26,05,04,13.70
2016,09,26,05,05,13.70
2016,09,26,05,06,13.70
2016,09,26,05,07,13.70
2016,09,26,05,08,13.60
2016,09,26,05,09,13.60
2016,09,26,05,10,13.60
2016,09,26,05,11,13.60
2016,09,26,05,12,13.60
2016,09,26,05,13,13.60
2016,09,26,05,14,13.60
2016,09,26,05,15,13.60
2016,09,26,05,16,13.60
2016,09,26,05,17,13.50
2016,09,26,05,18,13.50
2016,09,26,05,19,13.50
2016,09,26,05,20,13.60
2016,09,26,05,21,13.60
2016,09,26,05,22,13.60
2016,09,26,05,23,13.60
2016,09,26,05,24,13.60
2016,09,26,05,25,13.60
2016,09,26,05,26,13.60
2016,09,26,05,27,13.60
2016,09,26,05,28,13.60
2016,09,26,05,29,13.60
2016,09,26,05,30,13.60
2016,09,26,05,31,13.60
2016,09,26,05,32,13.60
2016,09,26,05,33,13.60
2016,09,26,05,34,13.60
2016,09,26,05,35,13.60
2016,09,26,05,36,13.60
2016,09,26,05,37,13.60
2016,09,26,05,38,13.60
2016,09,26,05,39,13.60
2016,09,26,05,40,13.60
2016,09,26,05,41,13.60
2016,09,26,05,42,13.60
2016,09,26,05,43,13.60
2016,09,26,05,44,13.60
2016,09,26,05,45,13.60
2016,09,26,05,46,13.60
2016,09,26,05,47,13.60
2016,09,26,05,48,13.60
2016,09,26,05,49,13.60
2016,09,26,05,50,13.60
2016,09,26,05,51,13.60
2016,09,26,05,52,13.60
2016,09,26,05,53,13.60
2016,09,26,05,54,13.60
2016,09,26,05,55,13.60
2016,09,26,05,56,13.60
2016,09,26,05,57,13.50
2016,09,26,05,58,13.50
2016,09,26,05,59,13.40
2016,09,26,06,00,13.40
2016,09,26,06,01,13.30
2016,09,26,06,02,13.30
2016,09,26,06,03,13.30
2016,09,26,06,04,13.30
2016,09,26,06,05,13.30
2016,09,26,06,06,13.30
2016,09,26,06,07,13.20
2016,09,26,06,08,13.20
2016,09,26,06,09,13.20
2016,09,26,06,10,13.20
2016,09,26,06,11,13.20
2016,09,26,06,12,13.20
2016,09,26,06,13,13.20
2016,09,26,06,14,13.20
2016,09,26,06,15,13.20
2016,09,26,06,16,13.20
2016,09,26,06,17,13.20
2016,09,26,06,18,13.20
2016,09,26,06,19,13.20
2016,09,26,06,20,13.20
2016,09,26,06,21,13.20
2016,09,26,06,22,13.20
2016,09,26,06,23,13.20
2016,09,26,06,24,13.30
2016,09,26,06,25,13.30
2016,09,26,06,26,13.30
2016,09,26,06,27,13.30
2016,09,26,06,28,13.30
2016,09,26,06,29,13.30
2016,09,26,06,30,13.30
2016,09,26,06,31,13.30
2016,09,26,06,32,13.30
2016,09,26,06,33,13.20
2016,09,26,06,34,13.20
2016,09,26,06,35,13.20
2016,09,26,06,36,13.20
2016,09,26,06,37,13.20
2016,09,26,06,38,13.20
2016,09,26,06,39,13.20
2016,09,26,06,40,13.20
2016,09,26,06,41,13.20
2016,09,26,06,42,13.10
2016,09,26,06,43,13.10
2016,09,26,06,44,13.00
2016,09,26,06,45,13.00
2016,09,26,06,46,13.00
2016,09,26,06,47,12.90
2016,09,26,06,48,12.90
2016,09,26,06,49,12.90
2016,09,26,06,50,12.80
2016,09,26,06,51,12.80
2016,09,26,06,52,12.80
2016,09,26,06,53,12.80
2016,09,26,06,54,12.80
2016,09,26,06,55,12.80
2016,09,26,06,56,12.70
2016,09,26,06,57,12.70
2016,09,26,06,58,12.70
2016,09,26,06,59,12.70
2016,09,26,07,00,12.70
2016,09,26,07,01,12.60
2016,09,26,07,02,12.60
2016,09,26,07,03,12.60
2016,09,26,07,04,12.60
2016,09,26,07,05,12.60
2016,09,26,07,06,12.60
2016,09,26,07,07,12.60
2016,09,26,07,08,12.60
2016,09,26,07,09,12.60
2016,09,26,07,10,12.70
2016,09,26,07,11,12.70
2016,09,26,07,12,12.70
2016,09,26,07,13,12.70
2016,09,26,07,14,12.70
2016,09,26,07,15,12.70
2016,09,26,07,16,12.70
2016,09,26,07,17,12.80
2016,09,26,07,18,12.80
2016,09,26,07,19,12.80
2016,09,26,07,20,12.80
2016,09,26,07,21,12.80
2016,09,26,07,22,12.80
2016,09,26,07,23,12.80
2016,09,26,07,24,12.80
2016,09,26,07,25,12.80
2016,09,26,07,26,12.80
2016,09,26,07,27,12.80
2016,09,26,07,28,12.80
2016,09,26,07,29,12.80
2016,09,26,07,30,12.80
2016,09,26,07,31,12.80
2016,09,26,07,32,12.80
2016,09,26,07,33,12.80
2016,09,26,07,34,12.80
2016,09,26,07,35,12.80
2016,09,26,07,36,12.90
2016,09,26,07,37,12.90
2016,09,26,07,38,12.90
2016,09,26,07,39,13.00
2016,09,26,07,40,13.00
2016,09,26,07,41,13.10
2016,09,26,07,42,13.10
2016,09,26,07,43,13.10
2016,09,26,07,44,13.20
2016,09,26,07,45,13.20
2016,09,26,07,46,13.30
2016,09,26,07,47,13.30
2016,09,26,07,48,13.30
2016,09,26,07,49,13.30
2016,09,26,07,50,13.30
2016,09,26,07,51,13.30
2016,09,26,07,52,13.30
2016,09,26,07,53,13.30
2016,09,26,07,54,13.40
2016,09,26,07,55,13.40
2016,09,26,07,56,13.50
2016,09,26,07,57,13.50
2016,09,26,07,58,13.50
2016,09,26,07,59,13.60
2016,09,26,08,00,13.60
2016,09,26,08,01,13.70
2016,09,26,08,02,13.70
2016,09,26,08,03,13.70
2016,09,26,08,04,13.80
2016,09,26,08,05,13.90
2016,09,26,08,06,13.90
2016,09,26,08,07,14.00
2016,09,26,08,08,14.10
2016,09,26,08,09,14.20
2016,09,26,08,10,14.20
2016,09,26,08,11,14.30
2016,09,26,08,12,14.40
2016,09,26,08,13,14.50
2016,09,26,08,14,14.50
2016,09,26,08,15,14.60
2016,09,26,08,16,14.60
2016,09,26,08,17,14.70
2016,09,26,08,18,14.70
2016,09,26,08,19,14.80
2016,09,26,08,20,14.80
2016,09,26,08,21,14.80
2016,09,26,08,22,14.90
2016,09,26,08,23,14.90
2016,09,26,08,24,15.00
2016,09,26,08,25,15.10
2016,09,26,08,26,15.10
2016,09,26,08,27,15.20
2016,09,26,08,28,15.20
2016,09,26,08,29,15.20
2016,09,26,08,30,15.30
2016,09,26,08,31,15.30
2016,09,26,08,32,15.40
2016,09,26,08,33,15.40
2016,09,26,08,34,15.50
2016,09,26,08,35,15.50
2016,09,26,08,36,15.60
2016,09,26,08,37,15.60
2016,09,26,08,38,15.70
2016,09,26,08,39,15.80
2016,09,26,08,40,15.90
2016,09,26,08,41,16.00
2016,09,26,08,42,16.10
2016,09,26,08,43,16.10
2016,09,26,08,44,16.20
2016,09,26,08,45,16.20
2016,09,26,08,46,16.30
2016,09,26,08,47,16.30
2016,09,26,08,48,16.30
2016,09,26,08,49,16.40
2016,09,26,08,50,16.40
2016,09,26,08,51,16.50
2016,09,26,08,52,16.50
2016,09,26,08,53,16.40
2016,09,26,08,54,16.40
2016,09,26,08,55,16.60
2016,09,26,08,56,16.60
2016,09,26,08,57,16.60
2016,09,26,08,58,16.60
2016,09,26,08,59,16.70
2016,09,26,09,00,16.70
2016,09,26,09,01,16.70
2016,09,26,09,02,16.70
2016,09,26,09,03,16.70
2016,09,26,09,04,16.70
2016,09,26,09,05,16.70
2016,09,26,09,06,16.70
2016,09,26,09,07,16.70
2016,09,26,09,08,16.70
2016,09,26,09,09,16.70
2016,09,26,09,10,16.80
2016,09,26,09,11,16.80
2016,09,26,09,12,16.80
2016,09,26,09,13,16.80
2016,09,26,09,14,16.80
2016,09,26,09,15,16.90
2016,09,26,09,16,16.90
2016,09,26,09,17,17.00
2016,09,26,09,18,17.00
2016,09,26,09,19,17.10
2016,09,26,09,20,17.10
2016,09,26,09,21,17.20
2016,09,26,09,22,17.30
2016,09,26,09,23,17.30
2016,09,26,09,24,17.40
2016,09,26,09,25,17.50
2016,09,26,09,26,17.50
2016,09,26,09,27,17.60
2016,09,26,09,28,17.60
2016,09,26,09,29,17.70
2016,09,26,09,30,17.70
2016,09,26,09,31,17.80
2016,09,26,09,32,17.80
2016,09,26,09,33,17.90
2016,09,26,09,34,17.90
2016,09,26,09,35,17.90
2016,09,26,09,36,18.00
2016,09,26,09,37,18.10
2016,09,26,09,38,18.20
2016,09,26,09,39,18.20
2016,09,26,09,40,18.10
2016,09,26,09,41,18.10
2016,09,26,09,42,18.10
2016,09,26,09,43,18.10
2016,09,26,09,44,18.10
2016,09,26,09,45,18.10
2016,09,26,09,46,18.20
2016,09,26,09,47,18.20
2016,09,26,09,48,18.20
2016,09,26,09,49,18.30
2016,09,26,09,50,18.40
2016,09,26,09,51,18.50
2016,09,26,09,52,18.60
2016,09,26,09,53,18.60
2016,09,26,09,54,18.60
2016,09,26,09,55,18.60
2016,09,26,09,56,18.60
2016,09,26,09,57,18.60
2016,09,26,09,58,18.60
2016,09,26,09,59,18.60
2016,09,26,10,00,18.60
2016,09,26,10,01,18.70
2016,09,26,10,02,18.70
2016,09,26,10,03,18.70
2016,09,26,10,04,18.70
2016,09,26,10,05,18.80
2016,09,26,10,06,18.60
2016,09,26,10,07,18.40
2016,09,26,10,08,18.10
2016,09,26,10,09,17.90
2016,09,26,10,10,17.70
2016,09,26,10,11,17.40
2016,09,26,10,12,17.30
2016,09,26,10,13,17.10
2016,09,26,10,14,17.10
2016,09,26,10,15,17.00
2016,09,26,10,16,16.90
2016,09,26,10,17,17.00
2016,09,26,10,18,17.00
2016,09,26,10,19,17.00
2016,09,26,10,20,17.10
2016,09,26,10,21,17.10
2016,09,26,10,22,17.10
2016,09,26,10,23,17.10
2016,09,26,10,24,17.20
2016,09,26,10,25,17.20
2016,09,26,10,26,17.30
2016,09,26,10,27,17.30
2016,09,26,10,28,17.50
2016,09,26,10,29,17.60
2016,09,26,10,30,17.70
2016,09,26,10,31,17.70
2016,09,26,10,32,17.80
2016,09,26,10,33,17.70
2016,09,26,10,34,17.60
2016,09,26,10,35,17.60
2016,09,26,10,36,17.60
2016,09,26,10,37,17.60
2016,09,26,10,38,17.70
2016,09,26,10,39,17.80
2016,09,26,10,40,17.90
2016,09,26,10,41,18.10
2016,09,26,10,42,18.20
2016,09,26,10,43,18.40
2016,09,26,10,44,18.50
2016,09,26,10,45,18.70
2016,09,26,10,46,18.80
2016,09,26,10,47,18.90
2016,09,26,10,48,19.00
2016,09,26,10,49,19.10
2016,09,26,10,50,19.20
2016,09,26,10,51,19.30
2016,09,26,10,52,19.40
2016,09,26,10,53,19.50
2016,09,26,10,54,19.60
2016,09,26,10,55,19.60
2016,09,26,10,56,19.70
2016,09,26,10,57,19.70
2016,09,26,10,58,19.60
2016,09,26,10,59,19.60
2016,09,26,11,00,19.60
2016,09,26,11,01,19.60
2016,09,26,11,02,19.60
2016,09,26,11,03,19.60
2016,09,26,11,04,19.60
2016,09,26,11,05,19.60
2016,09,26,11,06,19.50
2016,09,26,11,07,19.40
2016,09,26,11,08,19.40
2016,09,26,11,09,19.50
2016,09,26,11,10,19.60
2016,09,26,11,11,19.50
2016,09,26,11,12,19.50
2016,09,26,11,13,19.60
2016,09,26,11,14,19.60
2016,09,26,11,15,19.70
2016,09,26,11,16,19.80
2016,09,26,11,17,19.80
2016,09,26,11,18,19.80
2016,09,26,11,19,19.70
2016,09,26,11,20,19.70
2016,09,26,11,21,19.80
2016,09,26,11,22,19.70
2016,09,26,11,23,19.70
2016,09,26,11,24,19.60
2016,09,26,11,25,19.60
2016,09,26,11,26,19.60
2016,09,26,11,27,19.70
2016,09,26,11,28,19.80
2016,09,26,11,29,19.90
2016,09,26,11,30,19.90
2016,09,26,11,31,20.00
2016,09,26,11,32,20.10
2016,09,26,11,33,20.20
2016,09,26,11,34,20.20
2016,09,26,11,35,20.20
2016,09,26,11,36,20.20
2016,09,26,11,37,20.20
2016,09,26,11,38,20.20
2016,09,26,11,39,20.30
2016,09,26,11,40,20.20
2016,09,26,11,41,20.20
2016,09,26,11,42,20.20
2016,09,26,11,43,20.30
2016,09,26,11,44,20.40
2016,09,26,11,45,20.40
2016,09,26,11,46,20.40
2016,09,26,11,47,20.50
2016,09,26,11,48,20.60
2016,09,26,11,49,20.60
2016,09,26,11,50,20.50
2016,09,26,11,51,20.60
2016,09,26,11,52,20.60
2016,09,26,11,53,20.70
2016,09,26,11,54,20.90
2016,09,26,11,55,20.90
2016,09,26,11,56,20.90
2016,09,26,11,57,20.80
2016,09,26,11,58,20.70
2016,09,26,11,59,20.80
2016,09,26,12,00,20.90
2016,09,26,12,01,20.90
2016,09,26,12,02,20.80
2016,09,26,12,03,20.90
2016,09,26,12,04,20.90
2016,09,26,12,05,20.90
2016,09,26,12,06,20.90
2016,09,26,12,07,21.00
2016,09,26,12,08,21.00
2016,09,26,12,09,20.90
2016,09,26,12,10,20.80
2016,09,26,12,11,20.80
2016,09,26,12,12,20.70
2016,09,26,12,13,20.80
2016,09,26,12,14,20.90
2016,09,26,12,15,20.90
2016,09,26,12,16,20.90
2016,09,26,12,17,20.80
2016,09,26,12,18,20.80
2016,09,26,12,19,20.80
2016,09,26,12,20,20.60
2016,09,26,12,21,20.50
2016,09,26,12,22,20.50
2016,09,26,12,23,20.60
2016,09,26,12,24,20.70
2016,09,26,12,25,20.80
2016,09,26,12,26,21.00
2016,09,26,12,27,21.10
2016,09,26,12,28,21.10
2016,09,26,12,29,21.20
2016,09,26,12,30,21.20
2016,09,26,12,31,21.20
2016,09,26,12,32,21.20
2016,09,26,12,33,21.20
2016,09,26,12,34,21.10
2016,09,26,12,35,21.10
2016,09,26,12,36,21.20
2016,09,26,12,37,21.20
2016,09,26,12,38,21.10
2016,09,26,12,39,20.90
2016,09,26,12,40,20.90
2016,09,26,12,41,20.90
2016,09,26,12,42,21.00
2016,09,26,12,43,21.00
2016,09,26,12,44,20.90
2016,09,26,12,45,20.80
2016,09,26,12,46,20.80
2016,09,26,12,47,20.80
2016,09,26,12,48,20.80
2016,09,26,12,49,20.80
2016,09,26,12,50,20.80
2016,09,26,12,51,20.90
2016,09,26,12,52,21.00
2016,09,26,12,53,21.10
2016,09,26,12,54,21.20
2016,09,26,12,55,21.20
2016,09,26,12,56,21.20
2016,09,26,12,57,21.30
2016,09,26,12,58,21.30
2016,09,26,12,59,21.30
2016,09,26,13,00,21.30
2016,09,26,13,01,21.30
2016,09,26,13,02,21.30
2016,09,26,13,03,21.40
2016,09,26,13,04,21.50
2016,09,26,13,05,21.60
2016,09,26,13,06,21.40
2016,09,26,13,07,21.50
2016,09,26,13,08,21.60
2016,09,26,13,09,21.50
2016,09,26,13,10,21.40
2016,09,26,13,11,21.30
2016,09,26,13,12,21.40
2016,09,26,13,13,21.40
2016,09,26,13,14,21.60
2016,09,26,13,15,21.60
2016,09,26,13,16,21.60
2016,09,26,13,17,21.60
2016,09,26,13,18,21.60
2016,09,26,13,19,21.60
2016,09,26,13,20,21.60
2016,09,26,13,21,21.60
2016,09,26,13,22,21.60
2016,09,26,13,23,21.60
2016,09,26,13,24,21.60
2016,09,26,13,25,21.70
2016,09,26,13,26,21.70
2016,09,26,13,27,21.80
2016,09,26,13,28,21.80
2016,09,26,13,29,21.90
2016,09,26,13,30,21.90
2016,09,26,13,31,21.70
2016,09,26,13,32,21.60
2016,09,26,13,33,21.60
2016,09,26,13,34,21.60
2016,09,26,13,35,21.50
2016,09,26,13,36,21.40
2016,09,26,13,37,21.30
2016,09,26,13,38,21.30
2016,09,26,13,39,21.30
2016,09,26,13,40,21.30
2016,09,26,13,41,21.30
2016,09,26,13,42,21.30
2016,09,26,13,43,21.30
2016,09,26,13,44,21.20
2016,09,26,13,45,20.90
2016,09,26,13,46,20.50
2016,09,26,13,47,20.20
2016,09,26,13,48,19.90
2016,09,26,13,49,19.60
2016,09,26,13,50,19.50
2016,09,26,13,51,19.40
2016,09,26,13,52,19.30
2016,09,26,13,53,19.10
2016,09,26,13,54,19.00
2016,09,26,13,55,18.90
2016,09,26,13,56,18.80
2016,09,26,13,57,18.70
2016,09,26,13,58,18.70
2016,09,26,13,59,18.60
2016,09,26,14,00,18.70
2016,09,26,14,01,18.60
2016,09,26,14,02,18.60
2016,09,26,14,03,18.60
2016,09,26,14,04,18.60
2016,09,26,14,05,18.60
2016,09,26,14,06,18.60
2016,09,26,14,07,18.60
2016,09,26,14,08,18.50
2016,09,26,14,09,18.50
2016,09,26,14,10,18.50
2016,09,26,14,11,18.40
2016,09,26,14,12,18.40
2016,09,26,14,13,18.40
2016,09,26,14,14,18.30
2016,09,26,14,15,18.40
2016,09,26,14,16,18.40
2016,09,26,14,17,18.50
2016,09,26,14,18,18.50
2016,09,26,14,19,18.50
2016,09,26,14,20,18.50
2016,09,26,14,21,18.40
2016,09,26,14,22,18.40
2016,09,26,14,23,18.30
2016,09,26,14,24,18.30
2016,09,26,14,25,18.30
2016,09,26,14,26,18.20
2016,09,26,14,27,18.20
2016,09,26,14,28,18.20
2016,09,26,14,29,18.20
2016,09,26,14,30,18.20
2016,09,26,14,31,18.20
2016,09,26,14,32,18.20
2016,09,26,14,33,18.20
2016,09,26,14,34,18.10
2016,09,26,14,35,17.90
2016,09,26,14,36,17.90
2016,09,26,14,37,17.90
2016,09,26,14,38,17.90
2016,09,26,14,39,17.90
2016,09,26,14,40,17.80
2016,09,26,14,41,17.80
2016,09,26,14,42,17.80
2016,09,26,14,43,17.80
2016,09,26,14,44,17.80
2016,09,26,14,45,17.80
2016,09,26,14,46,17.90
2016,09,26,14,47,17.90
2016,09,26,14,48,17.80
2016,09,26,14,49,17.80
2016,09,26,14,50,17.80
2016,09,26,14,51,17.70
2016,09,26,14,52,17.70
2016,09,26,14,53,17.70
2016,09,26,14,54,17.80
2016,09,26,14,55,17.90
2016,09,26,14,56,18.00
2016,09,26,14,57,18.10
2016,09,26,14,58,18.20
2016,09,26,14,59,18.20
2016,09,26,15,00,18.30
2016,09,26,15,01,18.40
2016,09,26,15,02,18.50
2016,09,26,15,03,18.60
2016,09,26,15,04,18.60
2016,09,26,15,05,18.70
2016,09,26,15,06,18.80
2016,09,26,15,07,18.90
2016,09,26,15,08,18.90
2016,09,26,15,09,19.00
2016,09,26,15,10,19.10
2016,09,26,15,11,19.10
2016,09,26,15,12,19.10
2016,09,26,15,13,19.10
2016,09,26,15,14,19.10
2016,09,26,15,15,19.10
2016,09,26,15,16,19.10
2016,09,26,15,17,19.10
2016,09,26,15,18,19.20
2016,09,26,15,19,19.20
2016,09,26,15,20,19.10
2016,09,26,15,21,19.10
2016,09,26,15,22,19.00
2016,09,26,15,23,18.90
2016,09,26,15,24,18.90
2016,09,26,15,25,18.90
2016,09,26,15,26,18.80
2016,09,26,15,27,18.80
2016,09,26,15,28,18.80
2016,09,26,15,29,18.90
2016,09,26,15,30,18.90
2016,09,26,15,31,18.90
2016,09,26,15,32,18.90
2016,09,26,15,33,18.90
2016,09,26,15,34,18.90
2016,09,26,15,35,18.90
2016,09,26,15,36,18.90
2016,09,26,15,37,18.90
2016,09,26,15,38,18.90
2016,09,26,15,39,18.90
2016,09,26,15,40,18.90
2016,09,26,15,41,18.90
2016,09,26,15,42,18.90
2016,09,26,15,43,18.80
2016,09,26,15,44,18.70
2016,09,26,15,45,18.60
2016,09,26,15,46,18.50
2016,09,26,15,47,18.40
2016,09,26,15,48,18.30
2016,09,26,15,49,18.30
2016,09,26,15,50,18.20
2016,09,26,15,51,18.20
2016,09,26,15,52,18.20
2016,09,26,15,53,18.20
2016,09,26,15,54,18.10
2016,09,26,15,55,18.10
2016,09,26,15,56,18.10
2016,09,26,15,57,18.10
2016,09,26,15,58,18.20
2016,09,26,15,59,18.20
2016,09,26,16,00,18.10
2016,09,26,16,01,18.10
2016,09,26,16,02,18.20
2016,09,26,16,03,18.20
2016,09,26,16,04,18.20
2016,09,26,16,05,18.20
2016,09,26,16,06,18.20
2016,09,26,16,07,18.20
2016,09,26,16,08,18.20
2016,09,26,16,09,18.20
2016,09,26,16,10,18.20
2016,09,26,16,11,18.20
2016,09,26,16,12,18.20
2016,09,26,16,13,18.20
2016,09,26,16,14,18.10
2016,09,26,16,15,18.10
2016,09,26,16,16,18.10
2016,09,26,16,17,18.10
2016,09,26,16,18,18.10
2016,09,26,16,19,18.10
2016,09,26,16,20,18.10
2016,09,26,16,21,18.10
2016,09,26,16,22,18.10
2016,09,26,16,23,18.10
2016,09,26,16,24,18.00
2016,09,26,16,25,17.90
2016,09,26,16,26,17.90
2016,09,26,16,27,17.90
2016,09,26,16,28,17.90
2016,09,26,16,29,17.90
2016,09,26,16,30,18.10
2016,09,26,16,31,18.10
2016,09,26,16,32,18.10
2016,09,26,16,33,18.10
2016,09,26,16,34,18.10
2016,09,26,16,35,18.10
2016,09,26,16,36,18.20
2016,09,26,16,37,18.20
2016,09,26,16,38,18.10
2016,09,26,16,39,18.10
2016,09,26,16,40,18.10
2016,09,26,16,41,18.10
2016,09,26,16,42,18.20
2016,09,26,16,43,18.20
2016,09,26,16,44,18.20
2016,09,26,16,45,18.20
2016,09,26,16,46,18.20
2016,09,26,16,47,18.20
2016,09,26,16,48,18.20
2016,09,26,16,49,18.20
2016,09,26,16,50,18.20
2016,09,26,16,51,18.20
2016,09,26,16,52,18.20
2016,09,26,16,53,18.10
2016,09,26,16,54,18.10
2016,09,26,16,55,18.10
2016,09,26,16,56,18.00
2016,09,26,16,57,17.90
2016,09,26,16,58,17.90
2016,09,26,16,59,17.90
2016,09,26,17,00,17.90
2016,09,26,17,01,17.90
2016,09,26,17,02,17.90
2016,09,26,17,03,17.90
2016,09,26,17,04,17.90
2016,09,26,17,05,17.90
2016,09,26,17,06,17.80
2016,09,26,17,07,17.80
2016,09,26,17,08,17.80
2016,09,26,17,09,17.80
2016,09,26,17,10,17.70
2016,09,26,17,11,17.70
2016,09,26,17,12,17.70
2016,09,26,17,13,17.70
2016,09,26,17,14,17.70
2016,09,26,17,15,17.70
2016,09,26,17,16,17.70
2016,09,26,17,17,17.70
2016,09,26,17,18,17.70
2016,09,26,17,19,17.70